Location: Falls Church
(38.8823°N, 77.1711°W)
Time: 11:14:09
(UTC-05:00)

Hubble Space Telescope - Pass Details

Date: 18 December 2023
Orbit: 515 x 519 km, 28.5° (Epoch: 03 March)

Event Time Altitude Azimuth Distance (km) Brightness Sun altitude
Rises 06:38:15 0° 226° (SW) 2,633 4.1 -8.4°
Reaches altitude 10° 06:41:22 10° 201° (SSW) 1,746 3.4 -7.9°
Maximum altitude 06:43:32 14° 168° (SSE) 1,501 3.6 -7.5°
Drops below altitude 10° 06:45:43 10° 135° (SE) 1,746 4.7 -7.1°
Sets 06:48:49 0° 110° (ESE) 2,633 6.9 -6.5°
